Dewpoint
-0 -1 -1 -1 -0 1 1 2 2 1 1 3 3 3 1 2 0 -1 0 0 -1 -2 -3 -4 4 12 14 14 14 14 13 13 12 6 13 13 13 12 9 6 6 5 -1 -11
-2 -1 -2 -1 -1 0 -1 1 1 2 2 3 3 2 1 2 3 3 4 4 3 3 -0 1 1 10 14 14 13 14 13 13 12 4 8 13 13 12 11 7 6 7 4 -7
-2 -3 -3 -3 -2 -1 -2 -0 2 4 3 3 3 2 2 1 2 2 3 5 4 5 4 3 4 6 11 13 13 14 13 13 11 8 0 8 13 11 10 9 7 8 8 -3
-4 -5 -5 -3 -3 -1 0 -1 3 5 3 4 2 4 1 2 4 4 4 5 6 6 5 4 6 3 9 11 13 13 12 11 11 10 2 8 9 10 10 10 9 9 10 5
-6 -5 -4 -1 -4 -1 -1 3 5 4 3 4 3 6 3 4 6 5 5 6 7 8 7 6 5 5 7 12 13 13 13 12 12 9 7 7 9 11 12 11 11 11 10 10
-5 -5 -3 -2 -3 -1 0 4 3 3 3 4 5 5 3 7 6 5 5 7 7 9 10 10 9 7 7 12 13 13 13 12 12 10 9 10 11 10 11 11 12 12 10 9
-5 -7 -5 -3 -2 -2 0 3 9 6 8 6 3 5 5 5 5 5 8 7 7 8 9 12 11 11 11 12 13 13 12 12 12 12 11 11 11 9 10 9 9 8 8 8
-3 -7 -6 -5 -2 -0 2 5 9 12 7 8 5 9 6 4 4 7 7 7 7 7 8 10 11 12 12 12 12 12 12 12 12 12 12 11 8 7 8 8 9 8 8 8
-2 -4 -5 -4 -2 2 -1 3 5 8 6 7 6 -1 3 4 4 5 6 6 6 6 7 10 11 12 12 12 11 11 12 12 11 11 11 7 7 8 7 8 9 7 9 9
-4 -2 -6 -6 -0 -1 -0 2 4 6 10 7 -0 -1 5 6 4 3 5 5 5 5 6 9 10 11 11 11 11 11 10 8 8 10 9 9 9 8 8 9 8 9 9 9
-5 -4 -8 -5 -6 -4 -2 -2 0 4 5 6 3 -0 -1 2 3 3 2 4 4 5 7 8 10 11 10 11 11 9 7 8 9 9 9 9 8 9 9 9 9 9 8 8
-5 -5 -6 -8 -7 -5 -4 -3 -3 1 2 5 4 0 -2 -0 1 1 2 3 3 5 6 8 10 10 11 11 11 11 10 10 9 9 9 9 9 8 6 6 5 3 2 3
-4 -5 -6 -7 -4 -6 -7 -6 -5 -1 3 1 2 -2 -3 -1 1 1 2 2 1 3 4 6 7 7 9 9 9 9 10 7 6 7 6 5 3 3 2 2 1 1 1 0
-3 -3 -4 -6 -9 -8 -9 -7 -8 -5 -0 -5 -4 -4 -2 -0 1 1 1 1 2 2 2 2 2 5 5 5 4 3 3 2 2 2 1 1 1 0 0 -0 -0 -0 -1 -1
-4 -5 -6 -8 -9 -9 -8 -8 -8 -4 -2 -4 -6 -5 -4 -1 0 0 1 1 1 1 2 1 0 -1 0 0 0 -0 -0 -0 -0 -1 -2 -3 -4 -4 -5 -5 -6 -6 -7 -8
-10 -9 -9 -6 -6 -3 -2 -3 -3 -2 -2 -2 -4 -6 -5 -1 -0 -0 0 1 1 -0 -0 -0 -1 -1 -1 -1 -1 -2 -2 -3 -4 -4 -5 -5 -6 -7 -8 -8 -9 -10 -11 -13
-8 -6 -7 -6 -6 -4 -3 -3 -2 -2 -4 -9 -8 -5 -1 -1 -1 -0 -1 0 0 -1 -1 -1 -2 -2 -2 -3 -3 -4 -4 -5 -5 -6 -6 -7 -7 -8 -10 -12 -15 -17 -17 -16
-6 -6 -7 -5 -3 -2 -3 -4 -5 -5 -6 -6 -6 -4 -1 -1 -1 -1 -0 -1 -1 -1 -1 -2 -2 -3 -3 -4 -4 -5 -6 -6 -6 -7 -7 -9 -11 -14 -16 -17 -16 -15 -13 -12
-8 -7 -6 -1 -1 -3 -3 -3 -3 -5 -6 -7 -6 -4 -3 -1 -1 -1 -1 -1 -1 -2 -2 -3 -3 -4 -4 -4 -5 -6 -6 -6 -7 -9 -10 -12 -14 -16 -16 -15 -14 -12 -10 -8
-6 -7 -6 -1 2 1 -4 -5 -7 -8 -4 -7 -5 -4 -3 -2 -1 -4 -2 -1 -1 -2 -3 -4 -4 -4 -4 -5 -5 -6 -6 -7 -8 -10 -11 -13 -13 -12 -11 -9 -8 -7 -6 -6
-4 -4 -4 -2 1 -1 -4 -6 -8 -4 -3 -6 -4 -4 -3 -2 -4 -4 -2 -1 -2 -2 -3 -4 -4 -4 -5 -5 -5 -6 -6 -7 -10 -12 -13 -14 -13 -11 -9 -8 -9 -9 -10 -12
-2 -1 -2 -3 0 2 -4 -4 -5 -5 -5 -5 -3 -3 -3 -3 -5 -6 -3 -2 -2 -3 -3 -3 -4 -4 -5 -5 -5 -6 -7 -10 -12 -14 -14 -13 -12 -10 -11 -13 -13 -15 -17 -16
-1 -3 -1 -2 -0 -3 -4 -3 -6 -6 -4 -4 -4 -4 -4 -3 -5 -6 -6 -4 -2 -2 -3 -3 -4 -4 -5 -5 -6 -6 -9 -11 -14 -14 -14 -12 -11 -12 -15 -17 -17 -14 -13 -10
-3 -3 -1 -1 -4 -4 -3 -3 -5 -7 -7 -4 -4 -4 -6 -5 -5 -6 -5 -5 -2 -2 -3 -3 -4 -5 -5 -6 -6 -7 -10 -13 -14 -14 -13 -12 -13 -17 -18 -15 -15 -17 -15 -8
-3 -3 -3 -3 -4 -3 -3 -4 -4 -4 -4 -4 -4 -4 -4 -7 -6 -6 -6 -6 -3 -2 -3 -4 -4 -5 -5 -5 -6 -9 -11 -14 -14 -14 -13 -16 -20 -18 -16 -19 -21 -20 -16 -19
-3 -3 -2 -3 -5 -5 -5 -7 -7 -8 -8 -7 -6 -4 -4 -6 -6 -6 -6 -7 -4 -3 -3 -4 -4 -5 -5 -6 -7 -10 -12 -15 -16 -14 -18 -21 -19 -17 -19 -21 -19 -19 -19 -19
Wind_Speed
3 3 6 8 6 10 11 12 13 11 8 10 9 14 6 14 12 11 10 11 11 11 8 5 9 17 21 25 26 30 30 28 27 31 33 30 31 26 22 21 22 22 20 21
3 3 6 9 7 9 11 11 12 4 5 4 15 4 4 11 11 12 16 13 12 12 9 6 4 12 19 21 27 28 30 30 29 33 33 32 31 27 22 23 24 23 21 21
4 4 7 8 11 13 9 10 13 10 10 3 14 6 4 17 16 19 16 14 12 12 13 8 6 9 17 22 26 27 28 30 30 29 29 31 27 28 26 25 26 26 25 24
3 2 6 9 10 10 9 14 10 5 5 7 11 4 5 20 20 20 22 21 18 14 13 12 9 10 16 22 25 27 29 30 31 33 34 28 27 31 29 28 30 32 29 30
5 5 7 8 11 9 10 13 4 2 2 5 15 4 10 21 20 26 27 27 20 16 15 13 11 12 12 16 20 21 25 29 30 30 30 22 26 23 25 25 30 34 34 38
4 3 2 5 15 5 16 5 3 2 2 3 7 5 10 13 18 21 27 22 19 16 11 8 7 9 8 13 18 20 24 22 26 29 27 27 21 27 28 28 36 36 39 38
6 2 1 4 10 2 16 11 2 1 3 5 8 6 5 15 21 16 16 20 18 15 12 7 5 8 11 13 16 16 20 27 27 26 27 23 15 2 5 9 13 21 17 18
5 3 6 9 4 7 8 6 3 3 6 5 9 10 6 14 16 21 22 20 20 19 14 17 13 15 14 14 14 16 20 20 16 19 21 8 8 13 11 6 11 24 17 20
5 2 2 2 3 4 5 5 2 1 2 4 3 12 4 15 16 23 26 27 27 22 19 22 22 18 17 14 12 16 15 12 8 7 10 17 19 10 14 16 11 13 12 20
2 5 2 2 3 2 5 1 1 2 5 5 5 11 7 16 16 16 21 26 25 21 21 22 25 26 25 22 19 23 26 22 23 22 21 14 12 13 13 13 13 9 9 9
1 3 1 3 2 4 1 2 3 1 3 4 6 6 5 8 11 13 16 18 22 22 25 25 24 28 26 24 24 27 27 22 21 21 20 11 10 5 9 9 11 12 6 8
2 3 5 3 3 3 2 2 4 4 2 1 3 3 5 5 7 9 11 13 15 19 20 23 28 27 25 25 22 20 21 13 16 18 12 9 9 10 11 12 12 11 10 11
3 2 5 4 5 3 3 1 1 2 2 2 3 4 3 3 4 6 8 10 12 14 18 22 25 26 26 26 25 24 19 18 18 17 17 16 15 14 13 13 11 10 9 9
4 3 6 7 7 4 8 5 8 5 4 3 3 5 2 3 3 5 5 7 9 13 15 18 20 25 25 25 24 24 23 21 20 20 19 19 18 17 16 15 13 11 9 7
3 4 4 10 15 14 15 15 11 11 9 5 3 4 2 3 4 6 5 5 9 12 14 14 17 19 24 27 27 26 24 22 19 19 18 18 16 14 12 11 9 7 5 4
2 1 3 6 4 4 9 12 11 11 10 12 10 8 3 6 6 7 8 8 9 9 11 14 16 19 21 22 21 20 19 18 15 15 15 14 11 10 9 7 5 3 3 4
3 2 3 3 4 13 9 4 10 6 7 5 4 3 10 8 9 10 10 10 12 12 12 14 15 16 18 18 17 16 14 13 10 9 9 8 6 4 3 4 5 6 6 7
4 3 2 5 9 3 3 3 1 7 7 10 3 6 9 8 8 10 12 14 14 15 15 15 16 17 16 14 13 13 12 9 8 7 6 4 2 4 5 5 6 6 7 7
6 5 3 3 3 10 1 2 4 4 5 11 10 7 9 8 7 9 13 15 16 16 15 15 15 15 14 13 13 11 9 7 6 4 2 2 4 4 5 5 5 6 8 9
5 6 4 2 3 3 2 1 2 1 7 4 11 11 12 13 7 5 19 17 17 17 18 18 17 15 14 13 12 9 8 7 5 2 1 3 3 3 3 4 5 7 9 11
6 5 9 7 5 7 6 4 3 3 2 2 11 11 14 9 1 8 17 18 18 21 22 20 18 16 15 14 12 9 8 7 4 2 3 3 3 3 4 5 7 10 11 12
9 8 5 5 5 6 13 7 5 2 2 3 8 9 15 12 10 10 15 19 23 24 25 23 21 20 18 16 13 10 10 7 5 4 3 3 3 4 5 7 8 9 10 11
6 5 4 9 5 1 18 1 11 7 3 4 6 8 12 13 15 13 13 17 25 27 27 25 23 22 20 19 15 13 10 7 5 4 3 3 3 3 4 6 7 7 9 8
7 9 3 3 7 15 11 15 15 14 14 9 10 8 13 17 16 17 16 18 25 28 29 28 25 24 22 21 17 14 10 7 5 4 4 3 2 3 4 5 6 7 7 8
3 13 9 11 12 8 16 19 18 18 21 20 18 18 20 18 19 18 18 20 25 29 30 29 27 25 22 21 18 13 10 6 6 6 5 3 2 2 3 5 6 7 8 10
12 9 8 9 7 8 12 8 11 11 12 17 19 19 18 20 21 20 20 21 25 30 31 30 28 25 22 21 18 14 9 7 7 6 6 4 2 1 2 3 6 7 9 10
Wind_Direction
15 294 11 350 338 307 304 306 313 329 339 319 336 318 355 356 10 2 355 303 283 270 270 269 232 223 222 217 212 212 209 205 202 207 206 208 207 200 201 201 205 207 204 198
217 343 348 317 305 308 313 310 342 339 6 295 344 66 29 18 20 4 345 333 311 295 269 251 239 213 211 211 220 216 218 211 208 212 209 212 211 211 206 206 211 211 207 202
300 2 325 311 324 335 342 335 334 308 319 218 344 189 0 21 7 355 354 338 320 300 287 265 242 213 208 210 217 210 217 213 214 217 216 215 219 222 219 216 215 213 208 204
283 352 336 320 326 343 317 354 305 280 300 15 15 327 30 357 351 353 348 342 331 309 284 268 250 223 212 213 214 214 217 206 214 215 213 214 213 228 227 226 224 220 214 210
43 331 341 322 342 333 315 336 297 245 280 275 17 284 23 3 348 340 339 333 331 316 294 271 248 230 214 203 212 215 211 210 211 213 215 215 222 234 250 248 243 228 221 216
296 312 275 317 316 298 316 325 259 238 274 325 13 336 4 353 331 325 326 346 339 335 331 282 249 227 199 188 192 202 209 203 215 213 206 211 233 248 252 261 241 236 221 213
325 130 298 322 320 181 358 356 338 301 359 356 1 310 34 347 331 323 349 358 356 356 13 59 96 126 146 163 172 189 193 206 216 209 205 219 227 316 254 226 228 216 179 197
351 165 8 358 6 320 341 2 30 348 347 323 331 351 6 342 339 11 12 12 13 12 30 68 98 110 124 140 159 172 191 205 214 203 204 178 134 112 128 171 192 172 185 198
338 297 336 5 334 332 8 12 7 290 179 272 4 26 49 342 8 11 10 10 17 20 34 79 92 100 106 109 126 148 156 154 117 155 170 109 142 144 140 150 157 173 204 226
61 289 179 344 240 93 1 55 258 76 1 346 21 39 30 337 356 4 11 10 16 26 42 79 99 104 104 107 112 112 124 122 126 131 140 126 139 142 155 171 197 223 224 235
235 270 126 252 15 337 150 43 41 295 335 335 321 55 7 332 348 357 13 18 19 36 50 78 97 108 106 109 113 126 117 112 138 136 156 147 160 197 189 189 206 226 234 199
90 309 283 305 355 264 306 36 16 330 8 298 309 62 19 1 350 0 17 21 34 52 65 76 91 106 107 110 113 129 138 106 131 153 158 175 152 127 116 121 128 133 133 140
147 180 292 176 173 163 279 326 27 327 274 258 317 41 49 24 11 38 33 37 42 56 68 83 90 92 103 104 110 121 123 107 109 114 117 115 112 116 123 115 115 119 125 134
186 230 259 289 323 318 278 251 286 266 271 352 259 335 62 75 69 61 46 65 69 73 80 86 90 102 101 103 105 107 108 110 113 116 117 112 110 108 106 105 107 111 114 127
238 260 255 269 278 279 270 270 271 239 260 270 61 277 338 120 135 111 102 90 97 94 94 93 98 103 107 109 109 108 107 108 111 110 108 103 101 101 98 101 105 102 115 131
189 256 287 285 260 241 265 258 259 248 255 256 268 269 169 136 145 149 136 131 119 112 112 113 112 111 111 113 111 110 110 111 111 107 101 99 97 96 89 78 65 40 0 346
216 254 294 281 281 300 261 272 209 199 217 229 233 110 165 171 176 172 162 156 147 141 134 127 124 122 121 121 121 120 117 114 110 104 101 100 91 67 36 360 339 330 327 325
181 191 243 292 307 260 69 110 132 261 264 220 211 173 185 187 175 175 177 171 165 159 152 147 143 140 136 133 132 130 128 126 123 119 114 101 50 352 340 340 344 339 333 330
227 208 229 271 283 299 175 180 193 211 289 217 215 178 177 167 173 202 190 182 178 170 163 158 156 154 149 147 144 141 135 132 127 119 98 358 337 332 331 329 326 323 324 322
175 237 249 198 259 249 55 109 162 169 266 166 189 178 172 166 203 179 187 184 177 174 175 172 168 166 165 162 159 154 152 145 142 147 293 310 304 301 302 308 312 306 304 306
155 180 219 223 254 274 237 150 167 212 44 126 182 184 178 192 257 150 175 183 186 186 184 182 179 178 177 175 170 167 166 167 190 235 268 279 280 278 279 296 304 304 306 311
178 166 191 196 223 258 164 132 227 89 124 161 192 203 204 209 194 173 182 191 191 191 190 188 185 183 181 181 179 184 187 198 217 235 249 254 257 282 304 307 308 311 314 310
208 215 185 206 220 23 184 182 204 177 171 187 211 236 232 221 218 210 206 203 199 195 193 192 190 189 187 185 185 191 198 207 219 227 231 232 258 294 304 310 317 323 319 317
220 195 242 220 221 225 228 232 240 238 235 243 238 275 257 240 231 227 221 207 198 195 194 192 192 191 190 189 187 192 199 207 209 212 204 210 235 289 316 328 332 327 326 324
167 159 203 246 254 265 254 238 248 251 252 259 258 256 243 241 236 230 222 209 200 197 195 194 192 193 194 193 192 192 198 204 205 200 201 206 239 291 326 331 331 331 330 332
187 190 198 234 225 232 274 233 247 232 247 255 258 249 248 240 236 233 223 212 204 199 197 194 193 193 195 193 195 194 199 204 202 197 203 212 227 277 328 328 330 339 340 336
Height
1518 1513 1513 1512 1512 1510 1507 1504 1499 1493 1493 1496 1490 1489 1486 1487 1483 1481 1478 1476 1474 1475 1476 1476 1478 1480 1482 1485 1488 1493 1497 1502 1506 1510 1515 1518 1523 1525 1527 1531 1535 1538 1542 1544
1515 1513 1514 1515 1511 1509 1503 1500 1494 1492 1495 1495 1493 1489 1488 1485 1484 1483 1480 1477 1475 1473 1472 1474 1475 1478 1480 1483 1485 1488 1493 1499 1503 1507 1513 1517 1519 1523 1526 1528 1533 1537 1541 1543
1516 1514 1516 1513 1508 1506 1498 1501 1500 1499 1494 1495 1491 1484 1483 1481 1483 1482 1480 1476 1472 1471 1469 1471 1471 1474 1477 1480 1482 1487 1490 1495 1500 1503 1510 1515 1517 1521 1523 1525 1529 1534 1538 1541
1515 1516 1516 1511 1507 1508 1501 1500 1500 1497 1493 1494 1495 1481 1476 1480 1483 1484 1478 1476 1471 1468 1466 1467 1468 1469 1473 1475 1479 1482 1486 1492 1495 1499 1504 1509 1510 1515 1517 1520 1523 1528 1532 1535
1515 1515 1515 1512 1509 1509 1501 1501 1498 1497 1494 1493 1491 1495 1481 1488 1490 1483 1479 1475 1470 1466 1463 1462 1465 1466 1469 1473 1476 1481 1485 1487 1493 1493 1501 1506 1511 1511 1513 1515 1518 1519 1524 1528
1517 1519 1517 1512 1509 1508 1504 1499 1499 1498 1494 1481 1498 1503 1483 1502 1501 1490 1481 1475 1471 1466 1461 1459 1461 1462 1466 1471 1475 1478 1482 1487 1485 1497 1501 1505 1507 1507 1509 1509 1510 1512 1514 1519
1515 1514 1516 1516 1508 1504 1501 1492 1498 1493 1497 1494 1493 1493 1500 1504 1499 1493 1483 1477 1472 1468 1462 1459 1460 1462 1466 1470 1474 1478 1482 1485 1490 1495 1500 1503 1504 1505 1507 1508 1508 1510 1515 1516
1524 1514 1515 1516 1515 1515 1511 1510 1516 1520 1508 1507 1497 1506 1502 1506 1497 1492 1486 1481 1476 1470 1465 1460 1460 1463 1467 1471 1474 1477 1481 1487 1491 1497 1500 1501 1506 1503 1502 1507 1509 1511 1512 1517
1525 1518 1517 1518 1517 1518 1508 1511 1518 1524 1521 1512 1502 1488 1502 1502 1493 1491 1487 1482 1478 1472 1467 1464 1465 1467 1470 1473 1476 1479 1484 1489 1494 1497 1499 1503 1503 1507 1504 1509 1513 1515 1517 1519
1528 1527 1517 1517 1518 1517 1513 1518 1511 1510 1521 1511 1489 1492 1506 1502 1495 1494 1490 1487 1484 1480 1474 1471 1470 1472 1474 1477 1480 1484 1488 1493 1495 1499 1503 1506 1509 1510 1511 1512 1515 1517 1518 1519
1529 1530 1515 1518 1514 1514 1512 1510 1512 1513 1512 1511 1498 1496 1501 1501 1502 1499 1497 1495 1491 1486 1482 1479 1477 1478 1481 1482 1484 1489 1494 1496 1500 1503 1506 1508 1511 1511 1512 1511 1513 1515 1516 1517
1529 1527 1520 1513 1516 1519 1517 1515 1513 1511 1511 1510 1510 1496 1502 1504 1505 1503 1501 1500 1497 1494 1491 1488 1485 1485 1487 1487 1490 1494 1497 1501 1503 1505 1508 1509 1510 1512 1512 1513 1515 1517 1519 1520
1527 1524 1517 1511 1516 1517 1514 1516 1518 1517 1516 1505 1506 1494 1503 1504 1504 1506 1505 1503 1502 1500 1497 1495 1494 1493 1493 1494 1496 1497 1501 1505 1508 1510 1511 1512 1513 1515 1517 1517 1518 1520 1522 1523
1527 1524 1521 1515 1511 1517 1514 1514 1514 1515 1509 1498 1497 1497 1498 1504 1504 1506 1508 1507 1506 1505 1504 1504 1502 1501 1501 1501 1502 1503 1507 1510 1513 1515 1515 1516 1518 1519 1519 1519 1522 1523 1525 1527
1526 1520 1521 1516 1515 1515 1513 1512 1511 1513 1503 1502 1498 1501 1497 1501 1504 1506 1509 1510 1510 1509 1507 1508 1509 1509 1508 1508 1509 1511 1513 1515 1517 1518 1519 1519 1520 1522 1522 1523 1525 1525 1528 1528
1527 1518 1522 1512 1512 1514 1510 1504 1506 1506 1505 1503 1499 1498 1497 1502 1505 1507 1508 1510 1512 1513 1513 1512 1513 1513 1514 1514 1515 1515 1517 1519 1521 1520 1520 1521 1523 1524 1524 1526 1526 1526 1527 1526
1523 1521 1519 1505 1509 1505 1495 1490 1496 1497 1496 1493 1494 1490 1497 1501 1503 1504 1507 1509 1511 1513 1515 1515 1515 1516 1516 1517 1519 1520 1522 1523 1523 1522 1523 1524 1525 1525 1525 1525 1525 1525 1526 1526
1521 1522 1523 1512 1504 1500 1492 1492 1493 1495 1492 1492 1493 1494 1496 1498 1500 1502 1504 1506 1509 1511 1513 1515 1515 1516 1518 1519 1521 1522 1523 1524 1524 1525 1526 1526 1526 1525 1525 1524 1524 1525 1524 1523
1522 1520 1517 1515 1506 1490 1486 1492 1492 1493 1485 1486 1488 1493 1496 1499 1501 1501 1502 1504 1506 1509 1511 1513 1515 1517 1518 1519 1521 1522 1523 1524 1525 1526 1526 1526 1525 1525 1525 1524 1524 1523 1523 1522
1524 1523 1519 1518 1514 1501 1487 1491 1491 1491 1488 1484 1486 1489 1493 1497 1495 1491 1497 1501 1504 1506 1508 1510 1513 1515 1518 1519 1521 1522 1523 1524 1525 1525 1525 1525 1526 1526 1525 1524 1524 1523 1523 1521
1518 1520 1515 1510 1510 1493 1482 1489 1491 1490 1486 1483 1486 1488 1491 1492 1491 1492 1495 1499 1502 1504 1506 1509 1511 1513 1516 1518 1520 1522 1523 1523 1524 1524 1525 1525 1525 1525 1525 1524 1522 1522 1521 1518
1499 1505 1508 1508 1510 1501 1482 1489 1488 1479 1480 1481 1484 1488 1489 1490 1490 1491 1493 1496 1499 1502 1504 1507 1509 1511 1513 1517 1519 1521 1523 1523 1524 1523 1523 1524 1524 1524 1523 1522 1521 1519 1518 1516
1491 1483 1485 1488 1479 1477 1477 1477 1479 1479 1481 1480 1481 1484 1487 1488 1488 1488 1490 1492 1495 1497 1502 1505 1508 1510 1513 1514 1517 1519 1521 1522 1522 1522 1522 1522 1522 1522 1522 1521 1519 1517 1516 1514
1484 1486 1485 1484 1467 1474 1477 1475 1476 1477 1478 1479 1478 1479 1482 1484 1484 1484 1486 1488 1490 1493 1497 1501 1505 1508 1511 1513 1515 1517 1518 1519 1520 1520 1520 1520 1521 1521 1520 1519 1518 1516 1514 1513
1472 1479 1476 1473 1469 1473 1470 1469 1470 1471 1472 1473 1474 1473 1474 1477 1480 1480 1481 1483 1486 1489 1493 1496 1500 1505 1508 1511 1513 1514 1516 1516 1517 1518 1518 1518 1519 1519 1518 1517 1516 1515 1513 1510
1466 1463 1465 1459 1460 1461 1460 1462 1465 1466 1467 1468 1469 1469 1469 1471 1474 1476 1477 1478 1481 1484 1488 1493 1496 1500 1504 1508 1511 1512 1513 1514 1515 1516 1516 1517 1517 1517 1516 1516 1514 1513 1511 1508